Year,Month,Day,Hour,Minute,Value (Times are PST for temperature in C)
2017,12,13,00,00,4.60
2017,12,13,00,01,4.60
2017,12,13,00,02,4.60
2017,12,13,00,03,4.60
2017,12,13,00,04,4.60
2017,12,13,00,05,4.60
2017,12,13,00,06,4.60
2017,12,13,00,07,4.50
2017,12,13,00,08,4.50
2017,12,13,00,09,4.50
2017,12,13,00,10,4.50
2017,12,13,00,11,4.40
2017,12,13,00,12,4.40
2017,12,13,00,13,4.40
2017,12,13,00,14,4.40
2017,12,13,00,15,4.30
2017,12,13,00,16,4.30
2017,12,13,00,17,4.30
2017,12,13,00,18,4.30
2017,12,13,00,19,4.20
2017,12,13,00,20,4.20
2017,12,13,00,21,4.20
2017,12,13,00,22,4.20
2017,12,13,00,23,4.20
2017,12,13,00,24,4.20
2017,12,13,00,25,4.20
2017,12,13,00,26,4.20
2017,12,13,00,27,4.20
2017,12,13,00,28,4.20
2017,12,13,00,29,4.10
2017,12,13,00,30,4.10
2017,12,13,00,31,4.10
2017,12,13,00,32,4.10
2017,12,13,00,33,4.10
2017,12,13,00,34,4.00
2017,12,13,00,35,4.00
2017,12,13,00,36,4.00
2017,12,13,00,37,4.00
2017,12,13,00,38,4.00
2017,12,13,00,39,3.90
2017,12,13,00,40,3.90
2017,12,13,00,41,3.90
2017,12,13,00,42,3.90
2017,12,13,00,43,3.80
2017,12,13,00,44,3.80
2017,12,13,00,45,3.80
2017,12,13,00,46,3.80
2017,12,13,00,47,3.80
2017,12,13,00,48,3.70
2017,12,13,00,49,3.70
2017,12,13,00,50,3.60
2017,12,13,00,51,3.60
2017,12,13,00,52,3.50
2017,12,13,00,53,3.50
2017,12,13,00,54,3.40
2017,12,13,00,55,3.40
2017,12,13,00,56,3.40
2017,12,13,00,57,3.30
2017,12,13,00,58,3.30
2017,12,13,00,59,3.30
2017,12,13,01,00,3.30
2017,12,13,01,01,3.30
2017,12,13,01,02,3.30
2017,12,13,01,03,3.30
2017,12,13,01,04,3.30
2017,12,13,01,05,3.30
2017,12,13,01,06,3.20
2017,12,13,01,07,3.20
2017,12,13,01,08,3.20
2017,12,13,01,09,3.30
2017,12,13,01,10,3.30
2017,12,13,01,11,3.30
2017,12,13,01,12,3.30
2017,12,13,01,13,3.30
2017,12,13,01,14,3.30
2017,12,13,01,15,3.30
2017,12,13,01,16,3.30
2017,12,13,01,17,3.30
2017,12,13,01,18,3.30
2017,12,13,01,19,3.30
2017,12,13,01,20,3.30
2017,12,13,01,21,3.20
2017,12,13,01,22,3.20
2017,12,13,01,23,3.20
2017,12,13,01,24,3.20
2017,12,13,01,25,3.10
2017,12,13,01,26,3.10
2017,12,13,01,27,3.10
2017,12,13,01,28,3.10
2017,12,13,01,29,3.10
2017,12,13,01,30,3.00
2017,12,13,01,31,2.90
2017,12,13,01,32,2.90
2017,12,13,01,33,2.90
2017,12,13,01,34,2.80
2017,12,13,01,35,2.80
2017,12,13,01,36,2.80
2017,12,13,01,37,2.70
2017,12,13,01,38,2.70
2017,12,13,01,39,2.80
2017,12,13,01,40,2.80
2017,12,13,01,41,2.80
2017,12,13,01,42,2.80
2017,12,13,01,43,2.80
2017,12,13,01,44,2.80
2017,12,13,01,45,2.80
2017,12,13,01,46,2.80
2017,12,13,01,47,2.80
2017,12,13,01,48,2.80
2017,12,13,01,49,2.80
2017,12,13,01,50,2.80
2017,12,13,01,51,2.70
2017,12,13,01,52,2.70
2017,12,13,01,53,2.60
2017,12,13,01,54,2.60
2017,12,13,01,55,2.50
2017,12,13,01,56,2.50
2017,12,13,01,57,2.40
2017,12,13,01,58,2.40
2017,12,13,01,59,2.40
2017,12,13,02,00,2.40
2017,12,13,02,01,2.40
2017,12,13,02,02,2.40
2017,12,13,02,03,2.40
2017,12,13,02,04,2.40
2017,12,13,02,05,2.40
2017,12,13,02,06,2.50
2017,12,13,02,07,2.50
2017,12,13,02,08,2.60
2017,12,13,02,09,2.60
2017,12,13,02,10,2.70
2017,12,13,02,11,2.60
2017,12,13,02,12,2.60
2017,12,13,02,13,2.50
2017,12,13,02,14,2.50
2017,12,13,02,15,2.50
2017,12,13,02,16,2.40
2017,12,13,02,17,2.40
2017,12,13,02,18,2.30
2017,12,13,02,19,2.30
2017,12,13,02,20,2.20
2017,12,13,02,21,2.20
2017,12,13,02,22,2.10
2017,12,13,02,23,2.10
2017,12,13,02,24,2.00
2017,12,13,02,25,2.00
2017,12,13,02,26,1.90
2017,12,13,02,27,1.90
2017,12,13,02,28,1.80
2017,12,13,02,29,1.80
2017,12,13,02,30,1.80
2017,12,13,02,31,1.80
2017,12,13,02,32,1.80
2017,12,13,02,33,1.80
2017,12,13,02,34,1.80
2017,12,13,02,35,1.80
2017,12,13,02,36,1.80
2017,12,13,02,37,1.80
2017,12,13,02,38,1.80
2017,12,13,02,39,1.80
2017,12,13,02,40,1.80
2017,12,13,02,41,1.70
2017,12,13,02,42,1.70
2017,12,13,02,43,1.70
2017,12,13,02,44,1.70
2017,12,13,02,45,1.70
2017,12,13,02,46,1.70
2017,12,13,02,47,1.60
2017,12,13,02,48,1.60
2017,12,13,02,49,1.60
2017,12,13,02,50,1.50
2017,12,13,02,51,1.50
2017,12,13,02,52,1.40
2017,12,13,02,53,1.40
2017,12,13,02,54,1.40
2017,12,13,02,55,1.40
2017,12,13,02,56,1.50
2017,12,13,02,57,1.50
2017,12,13,02,58,1.60
2017,12,13,02,59,1.60
2017,12,13,03,00,1.60
2017,12,13,03,01,1.70
2017,12,13,03,02,1.70
2017,12,13,03,03,1.70
2017,12,13,03,04,1.80
2017,12,13,03,05,1.80
2017,12,13,03,06,1.80
2017,12,13,03,07,1.90
2017,12,13,03,08,1.90
2017,12,13,03,09,2.00
2017,12,13,03,10,2.00
2017,12,13,03,11,2.00
2017,12,13,03,12,2.00
2017,12,13,03,13,2.00
2017,12,13,03,14,1.90
2017,12,13,03,15,1.80
2017,12,13,03,16,1.80
2017,12,13,03,17,1.70
2017,12,13,03,18,1.60
2017,12,13,03,19,1.60
2017,12,13,03,20,1.50
2017,12,13,03,21,1.50
2017,12,13,03,22,1.40
2017,12,13,03,23,1.40
2017,12,13,03,24,1.30
2017,12,13,03,25,1.30
2017,12,13,03,26,1.30
2017,12,13,03,27,1.30
2017,12,13,03,28,1.20
2017,12,13,03,29,1.20
2017,12,13,03,30,1.20
2017,12,13,03,31,1.20
2017,12,13,03,32,1.20
2017,12,13,03,33,1.20
2017,12,13,03,34,1.20
2017,12,13,03,35,1.20
2017,12,13,03,36,1.10
2017,12,13,03,37,1.10
2017,12,13,03,38,1.10
2017,12,13,03,39,1.10
2017,12,13,03,40,1.00
2017,12,13,03,41,1.00
2017,12,13,03,42,1.00
2017,12,13,03,43,1.10
2017,12,13,03,44,1.10
2017,12,13,03,45,1.10
2017,12,13,03,46,1.20
2017,12,13,03,47,1.20
2017,12,13,03,48,1.20
2017,12,13,03,49,1.20
2017,12,13,03,50,1.20
2017,12,13,03,51,1.20
2017,12,13,03,52,1.10
2017,12,13,03,53,1.10
2017,12,13,03,54,1.00
2017,12,13,03,55,0.90
2017,12,13,03,56,0.90
2017,12,13,03,57,0.80
2017,12,13,03,58,0.80
2017,12,13,03,59,0.80
2017,12,13,04,00,0.80
2017,12,13,04,01,0.80
2017,12,13,04,02,0.70
2017,12,13,04,03,0.70
2017,12,13,04,04,0.70
2017,12,13,04,05,0.70
2017,12,13,04,06,0.70
2017,12,13,04,07,0.70
2017,12,13,04,08,0.70
2017,12,13,04,09,0.70
2017,12,13,04,10,0.70
2017,12,13,04,11,0.70
2017,12,13,04,12,0.70
2017,12,13,04,13,0.70
2017,12,13,04,14,0.70
2017,12,13,04,15,0.70
2017,12,13,04,16,0.70
2017,12,13,04,17,0.70
2017,12,13,04,18,0.70
2017,12,13,04,19,0.70
2017,12,13,04,20,0.70
2017,12,13,04,21,0.70
2017,12,13,04,22,0.70
2017,12,13,04,23,0.70
2017,12,13,04,24,0.70
2017,12,13,04,25,0.80
2017,12,13,04,26,0.80
2017,12,13,04,27,0.80
2017,12,13,04,28,0.80
2017,12,13,04,29,0.80
2017,12,13,04,30,0.80
2017,12,13,04,31,0.80
2017,12,13,04,32,0.80
2017,12,13,04,33,0.70
2017,12,13,04,34,0.70
2017,12,13,04,35,0.60
2017,12,13,04,36,0.60
2017,12,13,04,37,0.60
2017,12,13,04,38,0.60
2017,12,13,04,39,0.70
2017,12,13,04,40,0.70
2017,12,13,04,41,0.80
2017,12,13,04,42,0.80
2017,12,13,04,43,0.90
2017,12,13,04,44,1.00
2017,12,13,04,45,1.00
2017,12,13,04,46,1.00
2017,12,13,04,47,1.00
2017,12,13,04,48,1.00
2017,12,13,04,49,0.90
2017,12,13,04,50,0.90
2017,12,13,04,51,0.80
2017,12,13,04,52,0.80
2017,12,13,04,53,0.70
2017,12,13,04,54,0.70
2017,12,13,04,55,0.60
2017,12,13,04,56,0.60
2017,12,13,04,57,0.50
2017,12,13,04,58,0.50
2017,12,13,04,59,0.50
2017,12,13,05,00,0.50
2017,12,13,05,01,0.50
2017,12,13,05,02,0.50
2017,12,13,05,03,0.40
2017,12,13,05,04,0.40
2017,12,13,05,05,0.50
2017,12,13,05,06,0.50
2017,12,13,05,07,0.60
2017,12,13,05,08,0.60
2017,12,13,05,09,0.70
2017,12,13,05,10,0.70
2017,12,13,05,11,0.80
2017,12,13,05,12,0.80
2017,12,13,05,13,0.80
2017,12,13,05,14,0.70
2017,12,13,05,15,0.70
2017,12,13,05,16,0.60
2017,12,13,05,17,0.60
2017,12,13,05,18,0.50
2017,12,13,05,19,0.50
2017,12,13,05,20,0.40
2017,12,13,05,21,0.40
2017,12,13,05,22,0.40
2017,12,13,05,23,0.40
2017,12,13,05,24,0.30
2017,12,13,05,25,0.30
2017,12,13,05,26,0.30
2017,12,13,05,27,0.30
2017,12,13,05,28,0.30
2017,12,13,05,29,0.30
2017,12,13,05,30,0.20
2017,12,13,05,31,0.20
2017,12,13,05,32,0.20
2017,12,13,05,33,0.20
2017,12,13,05,34,0.10
2017,12,13,05,35,0.10
2017,12,13,05,36,0.10
2017,12,13,05,37,0.10
2017,12,13,05,38,0.10
2017,12,13,05,39,0.10
2017,12,13,05,40,0.10
2017,12,13,05,41,0.10
2017,12,13,05,42,0.10
2017,12,13,05,43,0.10
2017,12,13,05,44,0.10
2017,12,13,05,45,0.10
2017,12,13,05,46,0.10
2017,12,13,05,47,0.10
2017,12,13,05,48,0.10
2017,12,13,05,49,0.10
2017,12,13,05,50,0.20
2017,12,13,05,51,0.20
2017,12,13,05,52,0.20
2017,12,13,05,53,0.20
2017,12,13,05,54,0.10
2017,12,13,05,55,0.10
2017,12,13,05,56,0.10
2017,12,13,05,57,0.10
2017,12,13,05,58,0.00
2017,12,13,05,59,-0.10
2017,12,13,06,00,-0.10
2017,12,13,06,01,-0.10
2017,12,13,06,02,-0.10
2017,12,13,06,03,0.00
2017,12,13,06,04,0.10
2017,12,13,06,05,0.10
2017,12,13,06,06,0.20
2017,12,13,06,07,0.40
2017,12,13,06,08,0.50
2017,12,13,06,09,0.50
2017,12,13,06,10,0.60
2017,12,13,06,11,0.70
2017,12,13,06,12,0.80
2017,12,13,06,13,0.80
2017,12,13,06,14,0.90
2017,12,13,06,15,0.90
2017,12,13,06,16,0.90
2017,12,13,06,17,0.90
2017,12,13,06,18,0.80
2017,12,13,06,19,0.70
2017,12,13,06,20,0.60
2017,12,13,06,21,0.50
2017,12,13,06,22,0.40
2017,12,13,06,23,0.40
2017,12,13,06,24,0.40
2017,12,13,06,25,0.30
2017,12,13,06,26,0.30
2017,12,13,06,27,0.20
2017,12,13,06,28,0.20
2017,12,13,06,29,0.20
2017,12,13,06,30,0.20
2017,12,13,06,31,0.10
2017,12,13,06,32,0.10
2017,12,13,06,33,0.10
2017,12,13,06,34,0.10
2017,12,13,06,35,0.20
2017,12,13,06,36,0.20
2017,12,13,06,37,0.20
2017,12,13,06,38,0.30
2017,12,13,06,39,0.30
2017,12,13,06,40,0.30
2017,12,13,06,41,0.40
2017,12,13,06,42,0.30
2017,12,13,06,43,0.30
2017,12,13,06,44,0.30
2017,12,13,06,45,0.20
2017,12,13,06,46,0.20
2017,12,13,06,47,0.10
2017,12,13,06,48,0.10
2017,12,13,06,49,0.10
2017,12,13,06,50,0.10
2017,12,13,06,51,0.10
2017,12,13,06,52,0.10
2017,12,13,06,53,0.10
2017,12,13,06,54,0.10
2017,12,13,06,55,0.10
2017,12,13,06,56,0.10
2017,12,13,06,57,0.10
2017,12,13,06,58,0.10
2017,12,13,06,59,0.10
2017,12,13,07,00,0.00
2017,12,13,07,01,-0.10
2017,12,13,07,02,-0.10
2017,12,13,07,03,-0.10
2017,12,13,07,04,-0.10
2017,12,13,07,05,-0.10
2017,12,13,07,06,-0.10
2017,12,13,07,07,-0.10
2017,12,13,07,08,-0.10
2017,12,13,07,09,-0.10
2017,12,13,07,10,0.00
2017,12,13,07,11,0.10
2017,12,13,07,12,0.10
2017,12,13,07,13,0.10
2017,12,13,07,14,0.10
2017,12,13,07,15,0.10
2017,12,13,07,16,0.10
2017,12,13,07,17,0.00
2017,12,13,07,18,-0.10
2017,12,13,07,19,-0.10
2017,12,13,07,20,-0.10
2017,12,13,07,21,-0.10
2017,12,13,07,22,-0.10
2017,12,13,07,23,-0.10
2017,12,13,07,24,-0.10
2017,12,13,07,25,-0.10
2017,12,13,07,26,-0.10
2017,12,13,07,27,-0.10
2017,12,13,07,28,-0.10
2017,12,13,07,29,-0.10
2017,12,13,07,30,0.00
2017,12,13,07,31,0.10
2017,12,13,07,32,0.10
2017,12,13,07,33,0.00
2017,12,13,07,34,-0.10
2017,12,13,07,35,-0.10
2017,12,13,07,36,-0.10
2017,12,13,07,37,-0.10
2017,12,13,07,38,-0.10
2017,12,13,07,39,-0.10
2017,12,13,07,40,-0.10
2017,12,13,07,41,-0.10
2017,12,13,07,42,-0.10
2017,12,13,07,43,-0.20
2017,12,13,07,44,-0.20
2017,12,13,07,45,-0.20
2017,12,13,07,46,-0.20
2017,12,13,07,47,-0.20
2017,12,13,07,48,-0.20
2017,12,13,07,49,-0.20
2017,12,13,07,50,-0.20
2017,12,13,07,51,-0.20
2017,12,13,07,52,-0.20
2017,12,13,07,53,-0.20
2017,12,13,07,54,-0.20
2017,12,13,07,55,-0.30
2017,12,13,07,56,-0.30
2017,12,13,07,57,-0.20
2017,12,13,07,58,-0.20
2017,12,13,07,59,-0.10
2017,12,13,08,00,-0.10
2017,12,13,08,01,-0.10
2017,12,13,08,02,0.00
2017,12,13,08,03,0.10
2017,12,13,08,04,0.10
2017,12,13,08,05,0.10
2017,12,13,08,06,0.10
2017,12,13,08,07,0.10
2017,12,13,08,08,0.10
2017,12,13,08,09,0.10
2017,12,13,08,10,0.20
2017,12,13,08,11,0.20
2017,12,13,08,12,0.20
2017,12,13,08,13,0.30
2017,12,13,08,14,0.30
2017,12,13,08,15,0.30
2017,12,13,08,16,0.30
2017,12,13,08,17,0.30
2017,12,13,08,18,0.30
2017,12,13,08,19,0.30
2017,12,13,08,20,0.20
2017,12,13,08,21,0.20
2017,12,13,08,22,0.20
2017,12,13,08,23,0.20
2017,12,13,08,24,0.10
2017,12,13,08,25,0.20
2017,12,13,08,26,0.20
2017,12,13,08,27,0.20
2017,12,13,08,28,0.20
2017,12,13,08,29,0.30
2017,12,13,08,30,0.30
2017,12,13,08,31,0.40
2017,12,13,08,32,0.40
2017,12,13,08,33,0.40
2017,12,13,08,34,0.40
2017,12,13,08,35,0.40
2017,12,13,08,36,0.40
2017,12,13,08,37,0.40
2017,12,13,08,38,0.40
2017,12,13,08,39,0.40
2017,12,13,08,40,0.40
2017,12,13,08,41,0.40
2017,12,13,08,42,0.40
2017,12,13,08,43,0.40
2017,12,13,08,44,0.50
2017,12,13,08,45,0.50
2017,12,13,08,46,0.60
2017,12,13,08,47,0.60
2017,12,13,08,48,0.60
2017,12,13,08,49,0.60
2017,12,13,08,50,0.60
2017,12,13,08,51,0.70
2017,12,13,08,52,0.80
2017,12,13,08,53,0.80
2017,12,13,08,54,0.80
2017,12,13,08,55,0.90
2017,12,13,08,56,1.00
2017,12,13,08,57,1.00
2017,12,13,08,58,1.10
2017,12,13,08,59,1.20
2017,12,13,09,00,1.30
2017,12,13,09,01,1.30
2017,12,13,09,02,1.30
2017,12,13,09,03,1.30
2017,12,13,09,04,1.30
2017,12,13,09,05,1.30
2017,12,13,09,06,1.40
2017,12,13,09,07,1.40
2017,12,13,09,08,1.40
2017,12,13,09,09,1.40
2017,12,13,09,10,1.40
2017,12,13,09,11,1.40
2017,12,13,09,12,1.40
2017,12,13,09,13,1.50
2017,12,13,09,14,1.50
2017,12,13,09,15,1.50
2017,12,13,09,16,1.50
2017,12,13,09,17,1.60
2017,12,13,09,18,1.60
2017,12,13,09,19,1.70
2017,12,13,09,20,1.70
2017,12,13,09,21,1.80
2017,12,13,09,22,1.90
2017,12,13,09,23,2.00
2017,12,13,09,24,2.10
2017,12,13,09,25,2.10
2017,12,13,09,26,2.20
2017,12,13,09,27,2.20
2017,12,13,09,28,2.20
2017,12,13,09,29,2.20
2017,12,13,09,30,2.20
2017,12,13,09,31,2.20
2017,12,13,09,32,2.20
2017,12,13,09,33,2.20
2017,12,13,09,34,2.20
2017,12,13,09,35,2.20
2017,12,13,09,36,2.20
2017,12,13,09,37,2.20
2017,12,13,09,38,2.20
2017,12,13,09,39,2.20
2017,12,13,09,40,2.20
2017,12,13,09,41,2.30
2017,12,13,09,42,2.30
2017,12,13,09,43,2.40
2017,12,13,09,44,2.40
2017,12,13,09,45,2.50
2017,12,13,09,46,2.50
2017,12,13,09,47,2.50
2017,12,13,09,48,2.60
2017,12,13,09,49,2.60
2017,12,13,09,50,2.70
2017,12,13,09,51,2.70
2017,12,13,09,52,2.70
2017,12,13,09,53,2.80
2017,12,13,09,54,2.90
2017,12,13,09,55,3.00
2017,12,13,09,56,3.10
2017,12,13,09,57,3.10
2017,12,13,09,58,3.10
2017,12,13,09,59,3.20
2017,12,13,10,00,3.20
2017,12,13,10,01,3.20
2017,12,13,10,02,3.30
2017,12,13,10,03,3.30
2017,12,13,10,04,3.30
2017,12,13,10,05,3.30
2017,12,13,10,06,3.30
2017,12,13,10,07,3.40
2017,12,13,10,08,3.40
2017,12,13,10,09,3.50
2017,12,13,10,10,3.50
2017,12,13,10,11,3.60
2017,12,13,10,12,3.60
2017,12,13,10,13,3.70
2017,12,13,10,14,3.70
2017,12,13,10,15,3.80
2017,12,13,10,16,3.90
2017,12,13,10,17,4.00
2017,12,13,10,18,4.00
2017,12,13,10,19,4.10
2017,12,13,10,20,4.20
2017,12,13,10,21,4.30
2017,12,13,10,22,4.30
2017,12,13,10,23,4.40
2017,12,13,10,24,4.50
2017,12,13,10,25,4.60
2017,12,13,10,26,4.60
2017,12,13,10,27,4.70
2017,12,13,10,28,4.80
2017,12,13,10,29,4.90
2017,12,13,10,30,5.00
2017,12,13,10,31,5.10
2017,12,13,10,32,5.20
2017,12,13,10,33,5.30
2017,12,13,10,34,5.30
2017,12,13,10,35,5.40
2017,12,13,10,36,5.50
2017,12,13,10,37,5.60
2017,12,13,10,38,5.70
2017,12,13,10,39,5.70
2017,12,13,10,40,5.70
2017,12,13,10,41,5.80
2017,12,13,10,42,5.90
2017,12,13,10,43,6.00
2017,12,13,10,44,6.00
2017,12,13,10,45,6.10
2017,12,13,10,46,6.20
2017,12,13,10,47,6.20
2017,12,13,10,48,6.30
2017,12,13,10,49,6.40
2017,12,13,10,50,6.50
2017,12,13,10,51,6.60
2017,12,13,10,52,6.60
2017,12,13,10,53,6.70
2017,12,13,10,54,6.80
2017,12,13,10,55,6.80
2017,12,13,10,56,6.90
2017,12,13,10,57,7.00
2017,12,13,10,58,7.10
2017,12,13,10,59,7.20
2017,12,13,11,00,7.30
2017,12,13,11,01,7.40
2017,12,13,11,02,7.50
2017,12,13,11,03,7.50
2017,12,13,11,04,7.60
2017,12,13,11,05,7.70
2017,12,13,11,06,7.70
2017,12,13,11,07,7.80
2017,12,13,11,08,7.80
2017,12,13,11,09,7.90
2017,12,13,11,10,7.90
2017,12,13,11,11,7.90
2017,12,13,11,12,7.90
2017,12,13,11,13,7.90
2017,12,13,11,14,7.90
2017,12,13,11,15,7.90
2017,12,13,11,16,8.00
2017,12,13,11,17,8.00
2017,12,13,11,18,8.10
2017,12,13,11,19,8.10
2017,12,13,11,20,8.20
2017,12,13,11,21,8.20
2017,12,13,11,22,8.20
2017,12,13,11,23,8.20
2017,12,13,11,24,8.20
2017,12,13,11,25,8.20
2017,12,13,11,26,8.30
2017,12,13,11,27,8.30
2017,12,13,11,28,8.40
2017,12,13,11,29,8.40
2017,12,13,11,30,8.50
2017,12,13,11,31,8.50
2017,12,13,11,32,8.60
2017,12,13,11,33,8.60
2017,12,13,11,34,8.70
2017,12,13,11,35,8.70
2017,12,13,11,36,8.70
2017,12,13,11,37,8.80
2017,12,13,11,38,8.80
2017,12,13,11,39,8.90
2017,12,13,11,40,8.90
2017,12,13,11,41,8.90
2017,12,13,11,42,9.00
2017,12,13,11,43,9.00
2017,12,13,11,44,9.10
2017,12,13,11,45,9.10
2017,12,13,11,46,9.20
2017,12,13,11,47,9.20
2017,12,13,11,48,9.20
2017,12,13,11,49,9.30
2017,12,13,11,50,9.30
2017,12,13,11,51,9.40
2017,12,13,11,52,9.40
2017,12,13,11,53,9.50
2017,12,13,11,54,9.50
2017,12,13,11,55,9.50
2017,12,13,11,56,9.60
2017,12,13,11,57,9.60
2017,12,13,11,58,9.60
2017,12,13,11,59,9.70
2017,12,13,12,00,9.70
2017,12,13,12,01,9.70
2017,12,13,12,02,9.70
2017,12,13,12,03,9.80
2017,12,13,12,04,9.80
2017,12,13,12,05,9.80
2017,12,13,12,06,9.80
2017,12,13,12,07,9.90
2017,12,13,12,08,9.90
2017,12,13,12,09,9.90
2017,12,13,12,10,9.90
2017,12,13,12,11,10.00
2017,12,13,12,12,10.10
2017,12,13,12,13,10.10
2017,12,13,12,14,10.10
2017,12,13,12,15,10.10
2017,12,13,12,16,10.10
2017,12,13,12,17,10.10
2017,12,13,12,18,10.10
2017,12,13,12,19,10.20
2017,12,13,12,20,10.20
2017,12,13,12,21,10.20
2017,12,13,12,22,10.30
2017,12,13,12,23,10.30
2017,12,13,12,24,10.40
2017,12,13,12,25,10.40
2017,12,13,12,26,10.40
2017,12,13,12,27,10.40
2017,12,13,12,28,10.40
2017,12,13,12,29,10.40
2017,12,13,12,30,10.40
2017,12,13,12,31,10.40
2017,12,13,12,32,10.40
2017,12,13,12,33,10.40
2017,12,13,12,34,10.40
2017,12,13,12,35,10.40
2017,12,13,12,36,10.40
2017,12,13,12,37,10.40
2017,12,13,12,38,10.40
2017,12,13,12,39,10.40
2017,12,13,12,40,10.40
2017,12,13,12,41,10.40
2017,12,13,12,42,10.40
2017,12,13,12,43,10.40
2017,12,13,12,44,10.40
2017,12,13,12,45,10.40
2017,12,13,12,46,10.40
2017,12,13,12,47,10.40
2017,12,13,12,48,10.40
2017,12,13,12,49,10.40
2017,12,13,12,50,10.40
2017,12,13,12,51,10.40
2017,12,13,12,52,10.40
2017,12,13,12,53,10.30
2017,12,13,12,54,10.30
2017,12,13,12,55,10.30
2017,12,13,12,56,10.30
2017,12,13,12,57,10.40
2017,12,13,12,58,10.40
2017,12,13,12,59,10.40
2017,12,13,13,00,10.40
2017,12,13,13,01,10.40
2017,12,13,13,02,10.40
2017,12,13,13,03,10.40
2017,12,13,13,04,10.40
2017,12,13,13,05,10.40
2017,12,13,13,06,10.40
2017,12,13,13,07,10.40
2017,12,13,13,08,10.40
2017,12,13,13,09,10.40
2017,12,13,13,10,10.40
2017,12,13,13,11,10.40
2017,12,13,13,12,10.40
2017,12,13,13,13,10.40
2017,12,13,13,14,10.40
2017,12,13,13,15,10.40
2017,12,13,13,16,10.40
2017,12,13,13,17,10.40
2017,12,13,13,18,10.40
2017,12,13,13,19,10.40
2017,12,13,13,20,10.40
2017,12,13,13,21,10.30
2017,12,13,13,22,10.30
2017,12,13,13,23,10.30
2017,12,13,13,24,10.30
2017,12,13,13,25,10.30
2017,12,13,13,26,10.30
2017,12,13,13,27,10.40
2017,12,13,13,28,10.40
2017,12,13,13,29,10.40
2017,12,13,13,30,10.40
2017,12,13,13,31,10.40
2017,12,13,13,32,10.40
2017,12,13,13,33,10.40
2017,12,13,13,34,10.40
2017,12,13,13,35,10.40
2017,12,13,13,36,10.40
2017,12,13,13,37,10.40
2017,12,13,13,38,10.40
2017,12,13,13,39,10.40
2017,12,13,13,40,10.40
2017,12,13,13,41,10.40
2017,12,13,13,42,10.40
2017,12,13,13,43,10.40
2017,12,13,13,44,10.40
2017,12,13,13,45,10.40
2017,12,13,13,46,10.40
2017,12,13,13,47,10.40
2017,12,13,13,48,10.40
2017,12,13,13,49,10.40
2017,12,13,13,50,10.40
2017,12,13,13,51,10.40
2017,12,13,13,52,10.40
2017,12,13,13,53,10.40
2017,12,13,13,54,10.40
2017,12,13,13,55,10.40
2017,12,13,13,56,10.40
2017,12,13,13,57,10.40
2017,12,13,13,58,10.40
2017,12,13,13,59,10.40
2017,12,13,14,00,10.40
2017,12,13,14,01,10.40
2017,12,13,14,02,10.40
2017,12,13,14,03,10.40
2017,12,13,14,04,10.40
2017,12,13,14,05,10.40
2017,12,13,14,06,10.40
2017,12,13,14,07,10.40
2017,12,13,14,08,10.40
2017,12,13,14,09,10.40
2017,12,13,14,10,10.40
2017,12,13,14,11,10.50
2017,12,13,14,12,10.60
2017,12,13,14,13,10.60
2017,12,13,14,14,10.60
2017,12,13,14,15,10.60
2017,12,13,14,16,10.60
2017,12,13,14,17,10.60
2017,12,13,14,18,10.60
2017,12,13,14,19,10.60
2017,12,13,14,20,10.60
2017,12,13,14,21,10.60
2017,12,13,14,22,10.60
2017,12,13,14,23,10.60
2017,12,13,14,24,10.50
2017,12,13,14,25,10.40
2017,12,13,14,26,10.40
2017,12,13,14,27,10.40
2017,12,13,14,28,10.40
2017,12,13,14,29,10.40
2017,12,13,14,30,10.40
2017,12,13,14,31,10.40
2017,12,13,14,32,10.40
2017,12,13,14,33,10.40
2017,12,13,14,34,10.40
2017,12,13,14,35,10.30
2017,12,13,14,36,10.30
2017,12,13,14,37,10.30
2017,12,13,14,38,10.30
2017,12,13,14,39,10.30
2017,12,13,14,40,10.30
2017,12,13,14,41,10.30
2017,12,13,14,42,10.20
2017,12,13,14,43,10.20
2017,12,13,14,44,10.20
2017,12,13,14,45,10.20
2017,12,13,14,46,10.20
2017,12,13,14,47,10.20
2017,12,13,14,48,10.10
2017,12,13,14,49,10.10
2017,12,13,14,50,10.10
2017,12,13,14,51,10.10
2017,12,13,14,52,10.10
2017,12,13,14,53,10.10
2017,12,13,14,54,10.10
2017,12,13,14,55,10.10
2017,12,13,14,56,9.90
2017,12,13,14,57,9.90
2017,12,13,14,58,9.90
2017,12,13,14,59,9.90
2017,12,13,15,00,9.90
2017,12,13,15,01,9.90
2017,12,13,15,02,9.80
2017,12,13,15,03,9.80
2017,12,13,15,04,9.80
2017,12,13,15,05,9.70
2017,12,13,15,06,9.70
2017,12,13,15,07,9.70
2017,12,13,15,08,9.70
2017,12,13,15,09,9.60
2017,12,13,15,10,9.60
2017,12,13,15,11,9.50
2017,12,13,15,12,9.50
2017,12,13,15,13,9.40
2017,12,13,15,14,9.40
2017,12,13,15,15,9.40
2017,12,13,15,16,9.30
2017,12,13,15,17,9.30
2017,12,13,15,18,9.30
2017,12,13,15,19,9.20
2017,12,13,15,20,9.20
2017,12,13,15,21,9.20
2017,12,13,15,22,9.20
2017,12,13,15,23,9.20
2017,12,13,15,24,9.20
2017,12,13,15,25,9.10
2017,12,13,15,26,9.10
2017,12,13,15,27,9.10
2017,12,13,15,28,9.10
2017,12,13,15,29,9.10
2017,12,13,15,30,9.10
2017,12,13,15,31,9.10
2017,12,13,15,32,9.10
2017,12,13,15,33,9.10
2017,12,13,15,34,9.10
2017,12,13,15,35,9.10
2017,12,13,15,36,9.10
2017,12,13,15,37,9.10
2017,12,13,15,38,9.10
2017,12,13,15,39,9.10
2017,12,13,15,40,9.10
2017,12,13,15,41,9.10
2017,12,13,15,42,9.10
2017,12,13,15,43,9.20
2017,12,13,15,44,9.20
2017,12,13,15,45,9.20
2017,12,13,15,46,9.20
2017,12,13,15,47,9.20
2017,12,13,15,48,9.20
2017,12,13,15,49,9.20
2017,12,13,15,50,9.20
2017,12,13,15,51,9.20
2017,12,13,15,52,9.20
2017,12,13,15,53,9.20
2017,12,13,15,54,9.20
2017,12,13,15,55,9.20
2017,12,13,15,56,9.20
2017,12,13,15,57,9.10
2017,12,13,15,58,9.10
2017,12,13,15,59,9.10
2017,12,13,16,00,9.10
2017,12,13,16,01,9.00
2017,12,13,16,02,9.00
2017,12,13,16,03,9.00
2017,12,13,16,04,8.90
2017,12,13,16,05,8.90
2017,12,13,16,06,8.90
2017,12,13,16,07,8.80
2017,12,13,16,08,8.80
2017,12,13,16,09,8.80
2017,12,13,16,10,8.70
2017,12,13,16,11,8.70
2017,12,13,16,12,8.70
2017,12,13,16,13,8.70
2017,12,13,16,14,8.70
2017,12,13,16,15,8.70
2017,12,13,16,16,8.60
2017,12,13,16,17,8.60
2017,12,13,16,18,8.50
2017,12,13,16,19,8.50
2017,12,13,16,20,8.50
2017,12,13,16,21,8.40
2017,12,13,16,22,8.40
2017,12,13,16,23,8.30
2017,12,13,16,24,8.30
2017,12,13,16,25,8.30
2017,12,13,16,26,8.20
2017,12,13,16,27,8.20
2017,12,13,16,28,8.20
2017,12,13,16,29,8.20
2017,12,13,16,30,8.10
2017,12,13,16,31,8.10
2017,12,13,16,32,8.00
2017,12,13,16,33,8.00
2017,12,13,16,34,8.00
2017,12,13,16,35,7.90
2017,12,13,16,36,7.90
2017,12,13,16,37,7.90
2017,12,13,16,38,7.90
2017,12,13,16,39,7.80
2017,12,13,16,40,7.80
2017,12,13,16,41,7.80
2017,12,13,16,42,7.80
2017,12,13,16,43,7.80
2017,12,13,16,44,7.80
2017,12,13,16,45,7.80
2017,12,13,16,46,7.80
2017,12,13,16,47,7.80
2017,12,13,16,48,7.80
2017,12,13,16,49,7.80
2017,12,13,16,50,7.80
2017,12,13,16,51,7.80
2017,12,13,16,52,7.80
2017,12,13,16,53,7.70
2017,12,13,16,54,7.70
2017,12,13,16,55,7.70
2017,12,13,16,56,7.70
2017,12,13,16,57,7.70
2017,12,13,16,58,7.70
2017,12,13,16,59,7.70
2017,12,13,17,00,7.70
2017,12,13,17,01,7.60
2017,12,13,17,02,7.60
2017,12,13,17,03,7.60
2017,12,13,17,04,7.60
2017,12,13,17,05,7.60
2017,12,13,17,06,7.50
2017,12,13,17,07,7.50
2017,12,13,17,08,7.40
2017,12,13,17,09,7.40
2017,12,13,17,10,7.30
2017,12,13,17,11,7.30
2017,12,13,17,12,7.20
2017,12,13,17,13,7.20
2017,12,13,17,14,7.10
2017,12,13,17,15,7.10
2017,12,13,17,16,7.10
2017,12,13,17,17,7.00
2017,12,13,17,18,7.00
2017,12,13,17,19,7.00
2017,12,13,17,20,7.00
2017,12,13,17,21,7.00
2017,12,13,17,22,7.00
2017,12,13,17,23,6.90
2017,12,13,17,24,6.90
2017,12,13,17,25,6.90
2017,12,13,17,26,6.80
2017,12,13,17,27,6.80
2017,12,13,17,28,6.80
2017,12,13,17,29,6.80
2017,12,13,17,30,6.70
2017,12,13,17,31,6.70
2017,12,13,17,32,6.70
2017,12,13,17,33,6.60
2017,12,13,17,34,6.60
2017,12,13,17,35,6.60
2017,12,13,17,36,6.60
2017,12,13,17,37,6.60
2017,12,13,17,38,6.60
2017,12,13,17,39,6.60
2017,12,13,17,40,6.50
2017,12,13,17,41,6.40
2017,12,13,17,42,6.40
2017,12,13,17,43,6.40
2017,12,13,17,44,6.40
2017,12,13,17,45,6.40
2017,12,13,17,46,6.40
2017,12,13,17,47,6.40
2017,12,13,17,48,6.40
2017,12,13,17,49,6.40
2017,12,13,17,50,6.40
2017,12,13,17,51,6.40
2017,12,13,17,52,6.40
2017,12,13,17,53,6.40
2017,12,13,17,54,6.40
2017,12,13,17,55,6.40
2017,12,13,17,56,6.30